Regional Weather Roundup
Issued by NWS Goodland, KS

Home | Current Version | Previous Version | Text Only | Print | Product List | Glossary Off
Versions: 1 2 3 4 5 6 7 8 9 10 11 12 13 14 15 16 17 18 19 20 21 22 23 24 25 26 27 28 29 30 31 32 33 34 35 36 37 38 39 40 41 42 43 44 45 46 47 48 49 50

000
ASUS43 KGLD 240508
RWRGLD

GOODLAND FORECAST AREA HOURLY WEATHER ROUNDUP
NATIONAL WEATHER SERVICE GOODLAND KS
1100 PM MDT THU OCT 23 2014

...OFFICIAL OBSERVATIONS...

CITY           SKY/WX    TMP DP  RH WIND       PRES   REMARKS
GOODLAND KS    MOCLDY    59  52  77 SW15      30.08F
HILL CITY KS   CLEAR     59  54  83 SW3       30.04S
IMPERIAL NEB   PTCLDY    52  44  74 SW7       30.03R
MCCOOK NEB     PTCLDY    59  55  87 SW8       30.02F
AKRON CO       PTCLDY    57  37  47 SW12      30.09S
BURLINGTON CO  PTCLDY    55  48  77 SW12      30.11S
LIMON CO       CLEAR     52  36  54 SW5       30.17F
$$

...UNOFFICIAL OBSERVATIONS...

CITY           SKY/WX    TMP DP  RH WIND       PRES   REMARKS
GOVE KS          N/A     57  32  39 MISG        N/A
SHARON SPRINGS   N/A     55  52  91 SW8         N/A
TRIBUNE KS     PTCLDY    55  55 100 S9        30.12S
KIT CARSON CO    N/A     48  42  80 CALM        N/A
YUMA CO          N/A     52  37  57 SW7         N/A
$$



USA.gov is the U.S. government's official web portal to all federal, state and local government web resources and services.